Regional Weather Roundup
Issued by NWS

Home | Current Version | Previous Version | Graphics & Text | Print | Product List | Glossary On
Versions: 1 2 3 4 5 6 7 8 9 10 11 12 13 14 15 16 17 18 19 20 21 22 23 24 25 26 27 28 29 30 31 32 33 34 35 36 37 38 39 40 41 42 43 44 45 46 47 48 49 50
304
ASUS43 KTOP 010308
RWRKS

WEATHER ROUNDUP FOR KANSAS
NATIONAL WEATHER SERVICE GOODLAND KS
1000 PM CDT SUN APR 30 2017

NOTE:  "FAIR" INDICATES FEW OR NO CLOUDS BELOW 12,000 FEET WITH NO
SIGNIFICANT WEATHER AND/OR OBSTRUCTIONS TO VISIBILITY.

KSZ001>006-013>018-027>032-041>047-010400-
NORTHWEST KANSAS

CITY           SKY/WX    TMP DP  RH WIND       PRES   REMARKS
GOODLAND       CLOUDY    33  30  88 W7        29.76S
HAYS           LGT RAIN  35  33  92 N26G35    29.63S WCI  22
HILL CITY      FLURRIES  35  34  96 NW23G37   29.69S WCI  23
RUSSELL        MIX PCPN  36  34  92 NW23G36   29.60R WCI  24
$$

KSZ061>065-074>080-084>089-010400-
SOUTHWEST KANSAS

CITY           SKY/WX    TMP DP  RH WIND       PRES   REMARKS
DODGE CITY     CLOUDY    36  33  89 NW28G37   29.73R WCI  23
ELKHART          N/A    N/A N/A N/A MISG        N/A
GARDEN CITY    CLOUDY   N/A N/A N/A N18       29.78R
GREAT BEND     MIX PCPN  36  34  92 NW24G33   29.61R WCI  24
LIBERAL        CLOUDY    34  31  88 W13       29.84R WCI  25
PRATT          CLOUDY    34  32  93 NW25G32   29.64R WCI  21
$$

KSZ066>073-081>083-090>101-010400-
SOUTHEAST KANSAS

CITY           SKY/WX    TMP DP  RH WIND       PRES   REMARKS
CHANUTE        CLOUDY    46  43  89 S10       29.48R
COFFEYVILLE    CLOUDY    47  44  90 SW20G25   29.52R
HUTCHINSON     LGT RAIN  38  35  89 NW21G30   29.55R WCI  28
MEDICINE LODGE   N/A    N/A N/A N/A NW20G32   29.63R
NEWTON         LGT RAIN  41  39  93 NW17G24   29.50R
PARSONS        CLOUDY    47  44  90 SW12      29.50R
WICHITA INTL   LGT RAIN  41  38  89 W21G28    29.54R
WICHITA JABRA  CLOUDY    41  39  93 W22G29    29.52R
WICHITA MCCONL CLOUDY    41  37  87 NW23G29   29.53R
WINFIELD       CLOUDY    43  38  82 W18G26    29.57R
$$

KSZ007>012-019>026-033>040-048>060-102>105-010400-
NORTHEAST KANSAS

CITY           SKY/WX    TMP DP  RH WIND       PRES   REMARKS
CONCORDIA      CLOUDY    38  38 100 N22G29    29.50S WCI  27
EMPORIA        CLOUDY    43  43 100 S6        29.45S
LAWRENCE       CLOUDY    45  42  89 SE8       29.46F
MANHATTAN      LGT RAIN  46  43  89 CALM      29.44R
MARYSVILLE     LGT RAIN  45  43  93 NE8       29.44S
OLATHE IND     CLOUDY    45  41  86 S8        29.47F
OLATHE EXE     CLOUDY    43  42  97 S8        29.47F
SALINA         LGT RAIN  41  38  89 NW29G38   29.49R
TOPEKA BILLARD CLOUDY    46  43  89 S6        29.45S
TOPEKA FORBES  CLOUDY    46  43  89 S6        29.45S
$$




USA.gov is the U.S. government's official web portal to all federal, state and local government web resources and services.